Location: Llanrug
(53.1333°N, 4.2000°W)
Time: 07:26:40
(UTC+00:00)

Daily predictions for brighter satellites

Satellite Brightness Start Highest point End
(mag) Time Altitude Azimuth Time Altitude Azimuth Time Altitude Azimuth
Cosmos 1125 Rocket 4.3 16:52:31 10° NNW 16:57:41 60° WSW 17:02:47 10° S
ALOS 2.8 16:54:40 10° S 16:59:18 65° WSW 17:03:59 10° NNW
Cosmos 2123 Rocket 4.2 16:55:46 10° SSE 17:01:45 53° E 17:07:44 10° NNE
CZ-4 R/B 2.9 16:59:26 10° E 17:02:11 17° ENE 17:04:55 10° NNE
Cosmos 540 Rocket 4.0 16:57:30 10° SW 17:02:37 63° WNW 17:07:46 10° NNE
ATLAS 3B R/B 3.4 16:56:23 10° W 17:02:44 44° NNW 17:09:06 10° NE
SL-16 R/B 4.4 16:59:39 10° N 17:04:38 26° NW 17:09:35 10° WSW
Cosmos 1725 Rocket 4.0 16:58:55 10° N 17:05:18 75° ENE 17:11:37 10° SSE
Cosmos 2219 3.3 17:01:02 10° NNW 17:06:36 58° NE 17:12:08 10° SE
Cosmos 1408 Rocket 3.7 17:03:15 10° NNW 17:07:41 86° W 17:12:07 10° S
SMAP 3.1 17:03:41 10° SSE 17:08:14 57° ENE 17:12:49 10° N
Cosmos 2016 Rocket 4.2 17:03:59 10° NNW 17:10:25 86° W 17:16:48 10° S
Cosmos 1238 Rocket 3.4 17:06:11 10° N 17:11:00 46° ENE 17:14:57 10° SE
Cosmos 1500 Rocket 3.6 17:08:13 10° N 17:12:34 55° ENE 17:16:51 10° SSE
Cosmos 2369 Rocket 3.0 17:09:26 10° SW 17:14:53 50° NW 17:20:22 10° NNE
Cosmos 1689 Rocket 2.9 17:13:25 10° N 17:16:25 55° WNW 17:19:23 10° SSW
Cosmos 1633 Rocket 4.5 17:15:13 10° NNE 17:18:15 18° ENE 17:21:16 10° ESE
Cosmos 1633 4.0 17:17:57 10° NNE 17:20:30 18° ENE 17:23:02 10° ESE
COSMO-SKYMED 1 4.0 17:21:40 10° NE 17:24:42 18° E 17:27:42 10° SE
Elektron 3 3.9 17:23:29 10° SW 17:26:46 57° SE 17:29:07 14° ENE
COBE Rocket 4.5 17:22:54 10° NNE 17:27:22 35° E 17:31:42 10° SSE
Cosmos 1607 3.9 17:21:59 10° NW 17:28:13 75° NE 17:34:28 10° SE
Cosmos 2344 3.7 17:21:31 10° SSW 17:28:55 67° SE 17:37:18 10° NE
Cosmos 2227 Rocket 2.3 17:23:28 10° NNW 17:29:05 55° NE 17:34:38 10° SE
CSL-04 Rocket 4.3 17:24:50 10° ESE 17:29:30 32° ENE 17:34:10 10° N
Cosmos 2297 Rocket 2.3 17:23:58 10° NNW 17:29:34 59° NE 17:35:10 10° SE
Cosmos 1455 2.5 17:25:56 10° SSW 17:29:41 69° WNW 17:33:28 10° N
Aureole 2 Rocket 3.1 17:26:55 10° SW 17:30:15 54° WNW 17:33:45 10° NNE
Sich 1 3.7 17:30:40 10° N 17:34:37 33° ENE 17:38:34 10° SE
CZ-4B R/B 3.7 17:32:33 10° N 17:35:15 24° WNW 17:37:59 10° WSW
Cosmos 2084 3.7 17:33:15 10° NW 17:37:36 72° SW 17:41:49 10° SE
CORIOLIS 4.2 17:33:37 10° SSE 17:39:02 87° ENE 17:44:31 10° NNW
YAOGAN 6 3.2 17:38:10 10° SE 17:41:19 32° ENE 17:44:28 10° N
USA 215 3.3 17:37:20 10° E 17:43:51 74° NNE 17:50:24 10° WNW
H-2A R/B 2.9 17:41:31 10° S 17:45:23 79° WSW 17:49:14 10° NNW
Cosmos 1437 4.3 17:44:20 10° NNW 17:47:13 37° W 17:50:05 10° SSW
Envisat 3.0 17:42:45 10° SSE 17:47:47 65° ENE 17:52:50 10° N
Cosmos 1862 4.1 17:46:15 10° N 17:49:46 29° ENE 17:53:16 10° SE
Cosmos 2034 Rocket 4.5 17:44:13 10° N 17:50:05 37° ENE 17:55:56 10° SE
USA 229 DEB 4.4 17:44:22 10° S 17:50:07 33° ESE 17:54:26 17° ENE
USA 229 4.4 17:44:32 10° S 17:50:14 33° ESE 17:54:29 17° ENE
PSLV R/B 4.3 17:46:32 10° N 17:50:45 70° WNW 17:54:57 10° SSW
Meteor 1-27 4.2 17:47:28 10° S 17:53:05 69° E 17:58:47 10° NNE
Cosmos 1943 Rocket 3.8 17:48:55 10° W 17:53:52 30° NW 17:58:50 10° NNE
Meteor 2-10 Rocket 3.7 17:49:53 10° SSW 17:54:52 70° WNW 17:59:57 10° N
Cosmos 2263 Rocket 3.5 17:51:03 10° NNW 17:55:20 22° NNE 17:57:19 18° ENE
Cosmos 2082 3.8 17:49:51 10° NNW 17:55:24 56° NE 18:00:55 10° SE
Genesis I 3.9 17:52:42 10° SSW 17:56:26 38° SE 17:58:15 24° ENE
NOSS 3-1 (C) 4.2 17:52:02 10° S 17:56:51 30° ESE 17:59:56 20° ENE
YAOGAN 1 2.9 17:54:15 10° SE 17:58:19 42° ENE 18:02:25 10° N
Meteor 2-3 Rocket 4.4 17:55:18 10° NNW 18:01:03 61° W 18:06:43 10° S
Okean-O 2.8 17:57:37 10° S 18:02:04 77° WSW 18:06:32 10° NNW
Cosmos 2221 2.6 17:59:58 10° SSW 18:04:18 83° WNW 18:08:41 10° N
SeaSat 1 3.2 18:03:38 10° SSE 18:08:29 54° WSW 18:13:20 10° NW
Cosmos 1842 Rocket 4.2 18:04:24 10° SSW 18:08:49 58° WNW 18:13:16 10° N
TSX-5 4.2 18:06:29 10° SW 18:10:36 84° NW 18:15:04 15° NE
Cosmos 1697 Rocket 3.8 18:07:43 10° SSE 18:12:02 23° ESE 18:12:06 23° E
Geosat 3.9 18:08:09 14° NE 18:12:34 71° ESE 18:17:34 10° SSW
Cosmos 1356 Rocket 3.6 18:08:37 10° S 18:12:36 47° E 18:15:46 16° NNE
SKYMED 2 3.8 18:09:01 10° NNE 18:13:14 46° E 18:17:25 10° S
ATLAS 5 CENTAUR R/B 2.6 18:10:14 10° NW 18:15:48 69° SW 18:22:13 10° SSE
CZ-4 R/B 4.3 18:11:56 10° SSE 18:16:04 78° ENE 18:20:14 10° NNW
CZ-3B R/B 2.4 18:13:45 10° WSW 18:16:08 87° NNW 18:16:51 50° ENE
Lacrosse 4 Rocket 3.4 18:14:46 10° SSE 18:15:35 13° SE 18:15:35 13° SE
NOAA 15 4.5 18:16:42 10° SSE 18:22:00 75° ENE 18:27:18 10° NNW
Cosmos 1805 Rocket 3.9 18:21:18 10° NNW 18:25:38 65° W 18:29:57 10° S
Cosmos 2278 Rocket 4.3 18:24:52 10° NNW 18:27:21 13° N 18:29:50 10° NNE
Cosmos 1867 3.5 18:24:03 10° SW 18:29:32 88° NW 18:32:47 26° NE
H-2A R/B 3.4 18:31:12 22° NE 18:31:12 22° NE 18:34:24 10° N
Ariane Rocket 3.2 18:28:23 27° ESE 18:30:43 45° ENE 18:35:34 10° N
Cosmos 724 4.2 18:29:24 10° NW 18:35:19 71° NE 18:38:19 30° ESE
CZ-4 R/B 1.6 18:32:36 10° S 18:36:47 72° WSW 18:40:53 10° NNW
GEOS 3 Rocket 3.7 18:34:17 25° NE 18:37:25 79° NW 18:42:40 10° SW
USA 238 DEB 4.4 18:31:50 10° NW 18:38:23 40° NNE 18:41:12 29° ENE
USA 238 4.4 18:31:56 10° NW 18:38:28 40° NNE 18:41:18 29° ENE
CENTAUR R/B 3.7 18:32:31 10° WNW 18:39:03 38° N 18:42:52 25° NE
ARGOS 4.4 18:41:07 23° NE 18:41:07 23° NE 18:44:14 10° N
Cosmos 1844 Rocket 4.4 18:36:23 10° NNW 18:39:54 17° NNE 18:40:20 16° NNE
Cosmos 1464 Rocket 4.0 18:34:15 10° NNW 18:40:28 85° W 18:46:37 10° S
Cosmos 1869 3.5 18:37:23 10° SSW 18:41:20 69° WNW 18:45:10 11° N
NOAA 11 4.0 18:37:26 10° SSE 18:42:49 72° ENE 18:48:15 10° NNW
Cosmos 773 Rocket 4.0 18:38:14 10° SSW 18:43:24 79° WNW 18:47:24 18° NNE
CZ-2D R/B 3.1 18:44:40 67° ESE 18:44:57 70° ENE 18:48:51 10° N
Cosmos 923 Rocket 4.2 18:40:17 10° S 18:45:13 44° ESE 18:45:14 44° ESE
NOSS 3-2 (A) 4.5 18:39:56 10° NW 18:46:20 41° NNE 18:49:04 31° ENE
Cosmos 2056 Rocket 3.5 18:42:26 10° NNW 18:47:28 53° ENE 18:48:06 49° E
Cosmos 1624 Rocket 4.1 18:42:21 10° NNW 18:47:38 55° ENE 18:48:42 47° E
CSL-04 Debris 4.4 18:43:41 10° S 18:49:11 75° WSW 18:54:43 10° NNW
Cosmos 1656 3.5 18:45:15 10° SSW 18:50:44 65° ESE 18:52:28 42° NE
Meteor 2-20 Rocket 4.4 18:44:37 10° SSW 18:50:45 85° WNW 18:56:57 10° N
Cosmos 1939 Rocket 2.8 18:53:38 61° SSE 18:54:18 81° ENE 18:58:28 10° NNW
ATLAS 3B R/B 3.6 18:48:58 10° WNW 18:54:56 33° N 18:57:16 27° NE
Cosmos 1633 3.5 18:52:06 10° NNW 18:55:39 49° W 18:59:09 10° S
Cosmos 1633 Rocket 3.3 18:52:10 10° NNW 18:56:34 71° W 19:00:56 10° S
Cosmos 1538 Rocket 4.1 18:52:03 10° SSW 18:57:19 79° WNW 19:00:37 24° NNE
Cosmos 2369 Rocket 4.3 18:56:29 10° WNW 19:00:17 18° NNW 19:04:04 10° NNE
COSMO-SKYMED 1 2.9 18:57:26 13° N 19:01:18 65° WNW 19:05:36 10° SSW
Cosmos 1666 Rocket 4.5 19:01:57 10° NNW 19:06:12 48° W 19:10:23 10° SSW
CSL-04 Rocket 4.3 19:04:23 10° S 19:09:38 53° W 19:14:52 10° NNW
DMSP B5D1-3 4.4 19:11:57 72° ESE 19:11:57 72° ESE 19:17:05 10° S
Cosmos 2227 Rocket 3.8 19:07:53 10° NW 19:12:56 34° WSW 19:17:57 10° S
Cosmos 2297 Rocket 3.9 19:08:25 10° NW 19:13:21 31° WSW 19:18:15 10° SSW
Gblst 52 Del rocket 4.3 19:07:10 10° WSW 19:13:58 77° S 19:15:03 61° ESE
Cosmos 1980 Rocket 4.1 19:09:45 10° S 19:10:50 15° SSE 19:10:50 15° SSE
USA 215 3.5 19:24:41 40° SSE 19:27:02 62° SW 19:33:32 10° WNW
NOSS 3-2 (C) 4.4 19:21:38 10° NW 19:28:11 43° NNE 19:29:11 41° NE
BREEZE-M DEB (TANK) 3.6 19:24:05 10° W 19:28:14 37° SW 19:28:14 37° SW
Cosmos 2369 3.7 19:25:28 10° SSW 19:30:29 70° S 19:30:29 70° S
Cosmos 1470 Rocket 4.4 19:32:35 10° NNW 19:36:47 50° W 19:36:47 50° W
Cosmos 1371 Rocket 4.3 19:32:15 10° NNW 19:37:25 61° WSW 19:37:51 59° SW
Cosmos 1943 Rocket 4.5 19:36:38 10° NW 19:39:35 14° NNW 19:41:37 12° N
Cosmos 2263 Rocket 2.6 19:34:43 10° NNW 19:39:00 51° N 19:39:00 51° N
USA 229 DEB 3.7 19:33:52 10° SW 19:40:31 78° NW 19:41:54 59° NNE
USA 229 3.6 19:33:59 10° SW 19:40:37 79° NW 19:41:57 60° NNE
Cosmos 2344 4.3 19:36:20 10° W 19:43:49 52° NNW 19:47:45 32° NE
NOSS 3-1 (A) 3.5 19:39:49 10° SW 19:44:40 67° SSW 19:44:40 67° SSW
NOSS 3-1 (C) 3.4 19:41:16 10° SW 19:47:04 76° NW 19:47:21 74° N
Cosmos 1697 Rocket 3.3 19:49:44 10° SW 19:53:53 50° SW 19:53:53 50° SW
Lacrosse 4 Rocket 4.1 19:51:35 10° SW 19:51:57 12° SW 19:51:57 12° SW
Cosmos 1634 Rocket 4.1 19:52:58 10° NNW 19:59:10 71° W 19:59:17 71° WSW
Tsikada Rocket 4.3 19:53:57 10° SSW 20:00:17 66° WNW 20:06:42 10° N
H-2A R/B 3.6 20:11:50 31° NNW 20:11:50 31° NNW 20:14:34 10° NNW
Ariane Rocket 4.5 20:08:35 30° WSW 20:09:50 33° W 20:14:27 10° NNW
Cosmos 2278 Rocket 4.4 20:09:52 10° NNW 20:11:43 16° N 20:11:43 16° N
USA 238 DEB 4.2 20:23:11 10° NW 20:28:39 56° NNW 20:28:39 56° NNW
USA 238 4.2 20:23:17 10° NW 20:28:44 56° NNW 20:28:44 56° NNW
CENTAUR R/B 3.5 20:23:55 10° NW 20:30:03 51° N 20:30:03 51° N
NOSS 3-2 (A) 4.3 20:31:02 10° NW 20:36:27 56° NNW 20:36:27 56° NNW
ATLAS 3B R/B 3.8 20:40:32 10° NW 20:44:31 35° NNW 20:44:31 35° NNW
